Retour au catalogue

FENGYUN 1C DEB

ActifPO
NORAD 30716·DEBRIS·🇨🇳 China

Lancé May 10, 1999 depuis Taiyuan Satellite Launch Center

Loading…

Prochains Passages (prochaines 24 heures)

TLE

FraisSource: Space-Track

Époque: Sep 14, 2026, 02:06 UTC

1 30716U 99025ASA 26257.08802686  .00025980  00000-0  23252-2 0  9992
2 30716  98.8555 117.6139 0014043 295.8409 216.8313 14.95749714 19180

Suivez FENGYUN 1C DEB en temps réel avec AllMySat

Download on the App Store